Location: Llesp
(42.4568°N, 0.7590°E)
Time: 07:56:43
(UTC+00:00)

Daily predictions for brighter satellites

Satellite Brightness Start Highest point End
(mag) Time Altitude Azimuth Time Altitude Azimuth Time Altitude Azimuth
Cosmos 1354 Rocket 4.2 17:19:09 10° SSW 17:24:28 80° WNW 17:29:50 10° NNE
NOAA 11 4.2 17:19:10 10° SSE 17:24:37 68° ENE 17:30:06 10° N
Cosmos 1455 4.0 17:25:26 10° NE 17:26:53 12° ENE 17:28:19 10° E
Cosmos 2058 Rocket 4.1 17:25:17 10° NNE 17:29:02 25° ENE 17:32:47 10° SE
X-37B 2.2 17:27:36 10° SSW 17:30:15 24° SSE 17:32:55 10° E
Cosmos 1300 2.6 17:27:37 10° N 17:31:26 66° E 17:35:12 10° SSE
Landsat 5 4.3 17:32:32 10° N 17:36:20 48° WNW 17:40:02 10° SSW
Okean 1-7 Rocket 4.5 17:35:35 10° SSE 17:39:31 30° E 17:43:29 10° NNE
Lacrosse 5 2.9 17:36:27 10° NNW 17:40:49 28° NNE 17:45:00 11° E
ISS -2.8 17:39:20 10° SSW 17:42:24 34° SE 17:45:00 13° ENE
Cosmos 1939 Rocket 3.0 17:39:45 10° SSE 17:43:48 57° ENE 17:47:49 10° N
Cosmos 1943 3.4 17:38:14 10° NNW 17:43:55 78° WSW 17:49:31 10° SSE
Cosmos 1726 Rocket 3.6 17:40:24 10° N 17:44:43 58° E 17:49:02 10° SSE
ERS-2 3.2 17:42:49 10° NE 17:45:53 25° E 17:48:56 10° SSE
Meteor 1-24 Rocket 3.6 17:40:55 10° S 17:46:17 89° W 17:51:37 10° N
COSMOS 2455 2.9 17:41:14 10° SSW 17:47:10 63° ESE 17:53:07 10° NE
CZ-2C R/B 4.4 17:45:49 12° ENE 17:47:28 13° E 17:49:58 10° ESE
Cosmos 1844 4.5 17:47:30 10° SSE 17:52:23 31° ESE 17:57:10 11° NE
IRS-1C Rocket 4.3 17:49:40 10° SE 17:54:40 47° ENE 17:59:42 10° N
CZ-4 R/B 2.1 17:52:35 10° SE 17:56:11 30° ENE 17:59:45 10° N
Cosmos 1315 Rocket 3.5 17:53:19 10° NNW 17:57:14 57° W 18:01:10 10° S
Feng Yun 1-1 Rocket 4.1 17:51:58 10° SSE 17:57:20 68° ENE 18:02:49 10° N
COSMO-SKYMED 1 2.5 17:59:08 10° NNE 18:03:30 74° ESE 18:07:49 10° S
Cosmos 2279 Rocket 4.1 17:58:22 10° N 18:04:40 83° W 18:10:54 10° S
USA 267 4.3 18:04:12 16° E 18:07:53 25° SE 18:13:07 10° S
CZ-4 R/B 4.4 18:05:29 10° SSE 18:09:34 65° ENE 18:13:41 10° N
Okean-O 2.9 18:08:06 10° SE 18:12:17 42° ENE 18:16:29 10° N
CZ-4B R/B 1.8 18:10:14 10° N 18:13:35 62° WNW 18:16:50 10° SSW
CZ-2C R/B 3.1 18:08:29 10° SSE 18:13:41 74° ENE 18:19:14 10° N
Cosmos 1844 Rocket 2.7 18:08:41 10° S 18:14:14 59° ESE 18:19:24 12° NNE
Okean O Rocket 3.4 18:11:08 10° SSW 18:15:14 36° W 18:19:20 10° NNW
H-2A R/B 2.2 18:11:33 10° SE 18:16:14 44° ENE 18:21:03 10° N
Meteor 1-21 Rocket 4.4 18:11:54 10° SSE 18:17:10 48° E 18:22:28 10° NNE
Aureole 2 Rocket 1.9 18:14:47 10° SSW 18:17:45 82° ESE 18:19:28 24° NNE
Cosmos 1689 Rocket 2.2 18:20:01 43° ENE 18:20:19 45° E 18:23:03 10° S
Cosmos 1898 Rocket 4.4 18:18:24 10° SSE 18:22:48 27° E 18:23:42 26° E
Cosmos 158 Rocket 4.3 18:17:52 10° N 18:22:59 45° ENE 18:28:08 10° SE
Cosmos 1680 Rocket 4.1 18:20:11 10° N 18:24:52 32° ENE 18:26:36 26° E
CZ-2D R/B 3.8 18:26:01 10° S 18:29:49 61° W 18:33:39 10° NNW
Cosmos 1602 Rocket 3.9 18:26:45 10° SSE 18:30:44 38° E 18:31:34 35° ENE
Cosmos 1818 3.5 18:25:43 10° SSW 18:31:08 84° ESE 18:34:52 21° NE
TELKOM 3 3.9 18:29:58 10° W 18:32:11 40° NNW 18:32:11 40° NNW
SAR-Lupe-4 3.4 18:31:27 21° NNE 18:33:44 81° ESE 18:37:18 10° S
YAOGAN 1 2.4 18:29:53 10° SSE 18:34:10 70° ENE 18:38:30 10° N
Meteor 2-10 Rocket 3.9 18:29:07 10° NNW 18:34:36 70° W 18:39:49 10° S
Cosmos 489 Rocket 4.4 18:30:25 10° NNW 18:36:48 70° ENE 18:43:05 10° SSE
CSL-04 Rocket 3.8 18:32:55 10° SE 18:38:04 49° ENE 18:43:19 10° N
Helios 1A Rocket 2.8 18:35:02 10° SSE 18:39:06 62° ENE 18:43:13 10° N
USA 234 4.2 18:40:20 24° NE 18:42:34 30° NNE 18:48:05 10° NW
Cosmos 1092 Rocket 3.9 18:38:03 10° S 18:44:10 65° E 18:50:15 10° NNE
ATLAS 5 CENTAUR R/B 3.9 18:41:53 10° WNW 18:44:29 16° NNW 18:47:17 10° N
SAR-Lupe-1 4.1 18:42:35 24° N 18:44:37 74° WNW 18:48:10 10° SSW
MOS 1 Rocket 3.9 18:43:29 10° N 18:47:39 49° WNW 18:51:46 10° SSW
Iridium 4 Rocket 3.7 18:42:18 10° N 18:47:52 54° E 18:52:59 10° SSE
Meteor 2-1 Rocket 4.2 18:43:25 10° N 18:49:01 84° W 18:54:31 10° S
SJ 16-02 1.8 18:48:50 10° SSW 18:53:11 61° WNW 18:55:59 21° N
SJ-11-01 4.2 18:48:36 10° SSE 18:53:18 89° SW 18:58:01 10° NNW
Cosmos 1937 Rocket 4.2 18:52:59 10° S 18:56:46 36° SE 18:56:46 36° SE
Aureole 3 3.5 18:55:03 10° NNW 18:58:25 52° W 19:01:22 10° S
Cosmos 2112 Rocket 4.0 18:57:18 10° NNW 19:02:19 57° ENE 19:02:19 57° ENE
Cosmos 1455 3.1 18:59:05 10° NNW 19:02:46 48° W 19:06:27 10° SSW
X-37B 2.1 19:03:28 10° WSW 19:05:31 36° W 19:05:31 36° W
Cosmos 1703 3.4 19:03:03 10° SSW 19:06:55 68° W 19:07:02 68° WNW
Cosmos 1340 4.3 19:04:14 10° S 19:05:49 24° S 19:05:49 24° S
ARGOS 3.2 19:11:24 10° S 19:16:45 75° WSW 19:22:08 10° NNW
COSMOS 2406 4.5 19:11:47 10° N 19:14:49 27° NNE 19:14:49 27° NNE
Cosmos 44 3.2 19:14:19 10° SSW 19:18:46 80° SW 19:18:46 80° SW
ISS -1.7 19:16:01 10° W 19:17:58 26° WNW 19:17:58 26° WNW
Lacrosse 5 1.9 19:19:10 10° NW 19:24:13 72° SW 19:24:15 72° SW
CZ-2C R/B 2.7 19:27:19 60° N 19:28:22 85° WNW 19:33:59 10° SSW
CZ-4 R/B 3.9 19:28:00 10° SW 19:31:13 22° W 19:34:24 10° NW
NOSS 3-1 (C) 4.0 19:25:48 10° NNW 19:33:22 71° NE 19:34:39 62° E
Cosmos 990 Rocket 4.5 19:30:40 10° SW 19:35:47 57° WNW 19:36:25 53° NW
Cosmos 2026 Rocket 4.3 19:32:36 10° SSW 19:38:37 63° W 19:44:46 10° N
Cosmos 1833 Rocket 4.4 19:34:27 10° NNW 19:36:25 21° N 19:36:25 21° N
Cosmos 2082 Rocket 4.4 19:37:03 10° N 19:37:48 13° N 19:37:48 13° N
Meteor 2-19 Rocket 4.5 19:37:25 10° SSW 19:43:34 77° W 19:44:22 67° NNW
USA 229 DEB 4.0 19:43:00 10° NNW 19:49:18 60° N 19:49:18 60° N
USA 229 4.0 19:43:06 10° NNW 19:49:20 59° N 19:49:20 59° N
USA 267 3.1 19:51:34 85° WSW 19:51:34 85° WSW 19:57:55 10° SW
H-2A R/B 4.3 19:52:06 10° SW 19:55:53 22° W 19:59:45 10° NW
NOSS 3-1 (A) 4.3 19:58:22 10° NNW 20:04:26 59° N 20:04:26 59° N
Cosmos 2278 Rocket 4.3 20:01:15 10° SSW 20:02:22 16° SSW 20:02:22 16° SSW
USA 234 4.4 20:27:40 35° NNW 20:27:40 35° NNW 20:31:19 10° NW
